Location: Gleizolles
(44.4833°N, 6.7667°E)
Time: 16:26:11
(UTC+00:00)

Transit 2A - Pass Details

Date: 29 June 2024
Orbit: 591 x 960 km, 66.7° (Epoch: 16 July)

Event Time Altitude Azimuth Distance (km) Brightness Sun altitude
Rises 23:21:25 0° 312° (NW) 3,601 10.2 -22.3°
Reaches altitude 10° 23:24:55 10° 293° (WNW) 2,682 9.1 -22.3°
Maximum altitude 23:28:37 16° 257° (WSW) 2,262 8.3 -22.3°
Enters shadow 23:30:04 15° 241° (WSW) 2,332 8.2 -22.3°
